Location: Ferchesar
(52.6477°N, 12.4298°E)
Time: 23:01:33
(UTC+01:00)

TIGRISAT - Pass Details

Date: 22 October 2021
Orbit: 603 x 689 km, 97.7° (Epoch: 30 November)

Event Time Altitude Azimuth Distance (km) Brightness Sun altitude
Rises 22:15:54 0° 2° (N) 3,004 ? -37.9°
Reaches altitude 10° 22:19:11 10° 337° (NNW) 2,067 ? -38.3°
Maximum altitude 22:21:22 14° 307° (NW) 1,820 ? -38.5°
Drops below altitude 10° 22:23:32 10° 278° (W) 2,034 ? -38.8°
Sets 22:26:43 0° 252° (WSW) 2,917 ? -39.2°
